Location: Avebury
(53.1487°N, 106.9774°W)
Time: 15:17:57
(UTC+00:00)

Envisat - Pass Details

Date: 21 January 2022
Orbit: 764 x 765 km, 98.2° (Epoch: 22 May)

Event Time Altitude Azimuth Distance (km) Brightness Sun altitude
Rises 14:01:04 0° 6° (N) 3,245 6.1 -9.7°
Reaches altitude 10° 14:04:00 10° 349° (N) 2,314 5.2 -9.3°
Maximum altitude 14:07:25 19° 307° (NW) 1,791 4.3 -8.8°
Drops below altitude 10° 14:10:50 10° 264° (W) 2,305 4.9 -8.4°
Sets 14:13:45 0° 247° (WSW) 3,227 5.8 -8.0°
